Other Public Products
Issued by NWS Charleston, SC

Current Version | Previous Version | Graphics & Text | Print | Product List | Glossary On
Versions: 1 2 3 4 5 6 7 8 9 10 11 12 13 14 15 16 17 18 19 20 21 22 23 24 25 26 27 28 29 30 31 32 33 34 35 36 37 38 39 40 41 42 43 44 45 46 47 48 49 50
745
FPUS82 KCHS 300827
OPUCHS

TEST...KCHS/KSAV Gateway Observations...TEST
National Weather Service Charleston SC
400 AM EDT THU MAR 30 2017

NOTE: "fair" indicates few or no clouds below 12,000 feet with no
significant weather and/or obstructions to visibility.

SCZ050-WAZ558-NCZ071-TXZ119-213-PAZ071-DCZ001-FLZ074-172-MI076-
NYZ176-178-MAZ016-IL014-TNZ027-NJZ106-GAZ044-MD014-300900-

...Gateway Observations for Charleston International...

CITY           SKY/WX    TMP DP  RH WIND       PRES   REMARKS
Chas Airport   PTCLDY    65  61  87 E6        30.03S
Seattle        CLOUDY    45  40  82 SW14      30.03R
Charlotte      PTCLDY    60  52  74 SE13      30.06F
Dallas DFW     PTCLDY    56  44  64 W15       29.84R
Dallas Love    PTCLDY    57  44  62 W13       29.85S
Philladelphia  CLOUDY    41  24  51 NE12      30.22R
Wash National  MOCLDY    49  32  52 NE10      30.21S
Baltimore      PTCLDY    43  28  55 NE6       30.22R
Miami          PTCLDY    73  62  68 E3        30.00F
Detroit        CLOUDY    42  33  70 E10       30.13F
Newark         CLEAR     37  23  56 N7        30.22R WCI  32
Laguardia      CLEAR     42  23  46 N10       30.22R
J F K          PTCLDY    38  22  52 N9        30.23R WCI  31
Boston Logan   PTCLDY    35  23  61 NW14      30.13F WCI  26
Ft. Lauderdale PTCLDY    73  61  65 SE7       30.00S
Chicago O`Hare HVY RAIN  42  39  89 E13       29.92F FOG
Chicago Midway TSTM      42  40  92 NE15G24   29.92F FOG
Houston Bush   CLOUDY    64  59  83 NW14G24   29.82R
Houston Hobby  MOCLDY    65  63  93 SW6       29.80S
Nashville      CLOUDY    68  58  70 SE3       29.85F
Atlanta        MOCLDY    66  60  81 SE5       29.96F

$$

GAZ044-118-TXZ119-213-NCZ071-DCZ001-MDZ014-506-PAZ021-071-NJZ106-
NYZ176-178-MAZ106-OHZ011-021-055-MIZ076-KYZ091-ILZ014-INZ047-
MNZ060-ONZ431-300900-

...Gateway Observations for Savannah International...

CITY           SKY/WX    TMP DP  RH WIND       PRES   REMARKS
Savannah Arpt  FOG       67  65  93 SE6       30.02S VSB 3/4
Atlanta        MOCLDY    66  60  81 SE5       29.96F
Charlotte      PTCLDY    60  52  74 SE13      30.06F
Dallas DFW     PTCLDY    56  44  64 W15       29.84R
Houston Bush   CLOUDY    64  59  83 NW14G24   29.82R
Wash National  MOCLDY    49  32  52 NE10      30.21S
Wash Dulles    PTCLDY    45  31  58 NE7       30.20R
Baltimore      PTCLDY    43  28  55 NE6       30.22R
Philadelphia   CLOUDY    41  24  51 NE12      30.22R
Newark         CLEAR     37  23  56 N7        30.22R WCI  32
Laguardia      CLEAR     42  23  46 N10       30.22R
J F K          PTCLDY    38  22  52 N9        30.23R WCI  31
Boston         PTCLDY    35  23  61 NW14      30.13F WCI  26
Pittsburg      CLOUDY    46  30  53 E10       30.08F
Akron          CLOUDY    45  29  53 E16G24    30.06F
Cleveland      CLOUDY    49  29  46 E13       30.11F
Cincinnati     CLOUDY    53  44  71 E10       29.90F
Columbus       CLOUDY    47  35  63 E7        29.98S
Detroit        CLOUDY    42  33  70 E10       30.13F
Chicago O`Hare HVY RAIN  42  39  89 E13       29.92F FOG
Minneapolis    CLOUDY    40  36  86 NE10      30.01F WCI  33
Indianapolis   CLOUDY    54  43  66 E16       29.84F
Toronto Canada CLOUDY    37  23  56 E9        30.30R WCI  31

$$




USA.gov is the U.S. government's official web portal to all federal, state and local government web resources and services.